Location: Lussas
(44.6119°N, 4.4726°E)
Time: 14:49:09
(UTC+00:00)

BREEZE-M DEB (TANK) - Visible Passes

Search period start: 20 April 2021 00:00
Search period end: 30 April 2021 00:00
Orbit: 351 x 16374 km, 49.4° (Epoch: 19 April)

Date Brightness Start Highest point End Pass type
(mag) Time Alt. Az. Time Alt. Az. Time Alt. Az.
21 Apr 2.8 19:06:49 10° W 19:09:02 33° SSW 19:12:02 10° SE visible
22 Apr 4.2 19:53:25 10° WSW 19:55:07 15° SSW 19:57:30 10° S visible
28 Apr 4.5 19:21:55 10° WSW 19:23:06 12° SSW 19:24:32 10° S visible
